Time[GMT],temperature[C](51m),dissolved_oxygen[ml/l](51m),oxygen_saturation[ml/l](51m),percent_oxygen_saturation[%](51m)
2010-10-13 23:00,9.43,4.570,6.4920,70.40
2010-10-14 00:00,9.42,4.615,6.4911,71.10
2010-10-14 01:00,9.54,4.613,6.4788,71.20
2010-10-14 02:00,9.43,4.631,6.4949,71.30
2010-10-14 03:00,9.58,4.626,6.4704,71.50
2010-10-14 04:00,9.72,4.593,6.4505,71.20
2010-10-14 05:00,10.63,4.617,6.3252,73.00
2010-10-14 06:00,9.65,4.602,6.4631,71.20
2010-10-14 07:00,9.34,4.608,6.5091,70.80
2010-10-14 08:00,9.18,4.642,6.5289,71.10
2010-10-14 09:00,9.61,4.635,6.4649,71.70
2010-10-14 10:00,9.78,4.633,6.4438,71.90
2010-10-14 11:00,9.26,4.662,6.5205,71.50
2010-10-14 12:00,9.47,4.671,6.4877,72.00
2010-10-14 13:00,9.80,4.669,6.4399,72.50
2010-10-14 14:00,9.69,4.673,6.4549,72.40
2010-10-14 15:00,9.82,4.662,6.4395,72.40
2010-10-14 16:00,9.76,4.647,6.4445,72.10
2010-10-14 17:00,9.57,4.651,6.4687,71.90
2010-10-14 18:00,9.66,4.644,6.4593,71.90
2010-10-14 19:00,9.33,4.667,6.5086,71.70
2010-10-14 20:00,9.25,4.644,6.5137,71.30
2010-10-14 21:00,9.38,4.678,6.4970,72.00
2010-10-14 22:00,9.31,4.694,6.5098,72.10
2010-10-14 23:00,9.08,4.689,6.5398,71.70
2010-10-15 00:00,9.05,4.698,6.5523,71.70
2010-10-15 01:00,8.87,4.716,6.5773,71.70
2010-10-15 02:00,9.38,4.705,6.4982,72.40
2010-10-15 03:00,9.52,4.709,6.4776,72.70
2010-10-15 04:00,9.58,4.705,6.4714,72.70
2010-10-15 05:00,9.66,4.702,6.4595,72.80
2010-10-15 06:00,10.05,4.655,6.4037,72.70
2010-10-15 07:00,9.99,4.640,6.4085,72.40
2010-10-15 08:00,8.99,4.734,6.5566,72.20
2010-10-15 09:00,9.10,4.702,6.5403,71.90
2010-10-15 10:00,9.51,4.678,6.4790,72.20
2010-10-15 11:00,9.67,4.655,6.4570,72.10
2010-10-15 12:00,9.09,4.702,6.5403,71.90
2010-10-15 13:00,9.31,4.696,6.5129,72.10
2010-10-15 14:00,9.26,4.698,6.5160,72.10
2010-10-15 15:00,9.19,4.689,6.5307,71.80
2010-10-15 16:00,9.24,4.698,6.5160,72.10
2010-10-15 17:00,9.51,4.725,6.4813,72.90
2010-10-15 18:00,10.05,4.758,6.4044,74.30
2010-10-15 19:00,9.26,4.904,6.5126,75.30
2010-10-15 20:00,9.17,4.882,6.5262,74.80
2010-10-15 21:00,8.75,4.832,6.5926,73.30
2010-10-15 22:00,8.63,4.826,6.6105,73.00
2010-10-15 23:00,8.61,4.832,6.6106,73.10
2010-10-16 00:00,8.68,4.857,6.5992,73.60
2010-10-16 01:00,8.68,4.857,6.5992,73.60
2010-10-16 02:00,8.59,4.841,6.6138,73.20
2010-10-16 03:00,8.52,4.828,6.6317,72.80
2010-10-16 04:00,8.83,4.850,6.5811,73.70
2010-10-16 05:00,9.47,4.790,6.4903,73.80
2010-10-16 06:00,9.68,4.980,6.4510,77.20
2010-10-16 07:00,8.98,4.774,6.5579,72.80
2010-10-16 08:00,8.65,4.819,6.6103,72.90
2010-10-16 09:00,8.63,4.839,6.6108,73.20
2010-10-16 10:00,8.71,4.857,6.5992,73.60
2010-10-16 11:00,8.88,4.909,6.5710,74.70
2010-10-16 12:00,9.32,4.958,6.5063,76.20
2010-10-16 13:00,9.03,4.920,6.5509,75.10
2010-10-16 14:00,9.06,4.839,6.5482,73.90
2010-10-16 15:00,9.06,4.848,6.5426,74.10
2010-10-16 16:00,9.31,4.942,6.5113,75.90
2010-10-16 17:00,9.14,4.895,6.5355,74.90
2010-10-16 18:00,10.08,5.034,6.4045,78.60
2010-10-16 19:00,10.30,5.059,6.3710,79.40
2010-10-16 20:00,11.65,5.686,6.1867,91.90
2010-10-16 21:00,10.52,4.976,6.3384,78.50
2010-10-16 22:00,11.41,5.314,6.2223,85.40
2010-10-16 23:00,11.44,5.334,6.2167,85.80
2010-10-17 00:00,11.28,5.303,6.2384,85.00
2010-10-17 01:00,10.80,5.016,6.3015,79.60
2010-10-17 02:00,10.62,4.973,6.3275,78.60
2010-10-17 03:00,10.70,5.003,6.3164,79.20
2010-10-17 04:00,10.70,5.025,6.3127,79.60
2010-10-17 05:00,10.87,5.054,6.2861,80.40
2010-10-17 06:00,10.77,5.059,6.3074,80.20
2010-10-17 07:00,10.55,5.092,6.3335,80.40
2010-10-17 08:00,10.76,5.020,6.3071,79.60
2010-10-17 09:00,11.35,5.231,6.2273,84.00
2010-10-17 10:00,11.77,5.417,6.1695,87.80
2010-10-17 11:00,12.08,5.473,6.1286,89.30
2010-10-17 12:00,12.04,5.437,6.1365,88.60
2010-10-17 13:00,12.14,5.527,6.1202,90.30
2010-10-17 14:00,11.25,5.175,6.2424,82.90
2010-10-17 15:00,11.13,5.061,6.2556,80.90
2010-10-17 16:00,10.13,4.958,6.3971,77.50
2010-10-17 17:00,10.33,5.023,6.3659,78.90
2010-10-17 18:00,10.27,5.032,6.3692,79.00
2010-10-17 19:00,10.75,5.041,6.3087,79.90
2010-10-17 20:00,10.88,5.103,6.2926,81.10
2010-10-17 21:00,10.89,5.112,6.2882,81.30
2010-10-17 22:00,11.34,5.202,6.2298,83.50
2010-10-17 23:00,11.40,5.235,6.2179,84.20
2010-10-18 00:00,11.32,5.215,6.2309,83.70
2010-10-18 01:00,11.36,5.213,6.2208,83.80
2010-10-18 02:00,11.18,5.150,6.2504,82.40
2010-10-18 03:00,10.86,5.119,6.2964,81.30
2010-10-18 04:00,10.71,5.097,6.3077,80.80
2010-10-18 05:00,10.62,5.088,6.3201,80.50
2010-10-18 06:00,10.57,5.047,6.3329,79.70
2010-10-18 07:00,10.26,4.958,6.3725,77.80
2010-10-18 08:00,11.09,5.157,6.2586,82.40
2010-10-18 09:00,11.44,5.211,6.2107,83.90
2010-10-18 10:00,11.86,5.419,6.1580,88.00
2010-10-18 11:00,11.94,5.486,6.1505,89.20
2010-10-18 12:00,11.74,5.381,6.1779,87.10
2010-10-18 13:00,10.86,5.123,6.2942,81.40
2010-10-18 14:00,11.32,5.338,6.2292,85.70
2010-10-18 15:00,11.31,5.179,6.2328,83.10
2010-10-18 16:00,12.10,5.603,6.1298,91.40
2010-10-18 17:00,11.05,5.316,6.2689,84.80
2010-10-18 18:00,10.98,5.182,6.2732,82.60
2010-10-18 19:00,11.11,5.291,6.2546,84.60
2010-10-18 20:00,11.21,5.446,6.2453,87.20
2010-10-18 21:00,11.35,5.323,6.2255,85.50
2010-10-18 22:00,11.79,5.502,6.1681,89.20
2010-10-18 23:00,12.00,5.571,6.1426,90.70
2010-10-19 00:00,11.98,5.538,6.1462,90.10
2010-10-19 01:00,11.90,5.511,6.1505,89.60
2010-10-19 02:00,11.66,5.439,6.1880,87.90
2010-10-19 03:00,11.69,5.455,6.1847,88.20
2010-10-19 04:00,11.95,5.627,6.1501,91.50
2010-10-19 05:00,11.27,5.141,6.2395,82.40
2010-10-19 06:00,10.69,5.188,6.3119,82.20
2010-10-19 07:00,10.49,5.052,6.3465,79.60
2010-10-19 08:00,10.47,5.050,6.3437,79.60
2010-10-19 09:00,10.56,5.179,6.3319,81.80
2010-10-19 10:00,11.33,5.372,6.2321,86.20
2010-10-19 11:00,11.42,5.415,6.2165,87.10
2010-10-19 12:00,11.61,5.477,6.1960,88.40
2010-10-19 13:00,11.98,5.688,6.1423,92.60
2010-10-19 14:00,11.52,5.421,6.2029,87.40
2010-10-19 15:00,11.05,5.312,6.2636,84.80
2010-10-19 16:00,11.13,5.363,6.2580,85.70
2010-10-19 17:00,11.46,5.464,6.2160,87.90
2010-10-19 18:00,12.04,5.813,6.1320,94.80
2010-10-19 19:00,11.14,5.204,6.2549,83.20
2010-10-19 20:00,10.81,5.314,6.3035,84.30
2010-10-19 21:00,11.46,5.488,6.2087,88.40
2010-10-19 22:00,11.65,5.652,6.1905,91.30
2010-10-19 23:00,11.75,5.692,6.1738,92.20
2010-10-20 00:00,11.67,5.728,6.1858,92.60
2010-10-20 01:00,12.04,5.889,6.1347,96.00
2010-10-20 02:00,11.80,5.744,6.1628,93.20
2010-10-20 03:00,11.82,5.692,6.1671,92.30
2010-10-20 04:00,11.65,5.574,6.1860,90.10
2010-10-20 05:00,11.99,5.809,6.1403,94.60
2010-10-20 06:00,12.01,5.797,6.1349,94.50
2010-10-20 07:00,12.03,5.809,6.1338,94.70
2010-10-20 08:00,10.93,5.363,6.2799,85.40
2010-10-20 09:00,11.53,5.621,6.2037,90.60
2010-10-20 10:00,11.57,5.668,6.2009,91.40
2010-10-20 11:00,11.78,5.706,6.1683,92.50
2010-10-20 12:00,11.79,5.701,6.1701,92.40
2010-10-20 13:00,11.41,5.542,6.2202,89.10
2010-10-20 14:00,11.10,5.334,6.2605,85.20
2010-10-20 15:00,10.94,5.298,6.2774,84.40
2010-10-20 16:00,11.13,5.368,6.2559,85.80
2010-10-20 17:00,11.90,5.775,6.1503,93.90
2010-10-20 18:00,11.73,5.780,6.1748,93.60
2010-10-20 19:00,11.65,5.587,6.1872,90.30
2010-10-20 20:00,11.41,5.482,6.2151,88.20
2010-10-20 21:00,11.21,5.419,6.2432,86.80
2010-10-20 22:00,11.46,5.540,6.2107,89.20
2010-10-20 23:00,11.23,5.415,6.2380,86.80
2010-10-21 00:00,11.64,5.531,6.1868,89.40
2010-10-21 01:00,11.05,5.215,6.2684,83.20
2010-10-21 02:00,10.50,5.123,6.3409,80.80
2010-10-21 03:00,10.70,5.260,6.3146,83.30
2010-10-21 04:00,10.31,5.047,6.3649,79.30
2010-10-21 05:00,10.50,5.119,6.3432,80.70
2010-10-21 06:00,10.57,5.200,6.3333,82.10
2010-10-21 07:00,10.70,5.195,6.3124,82.30
2010-10-21 08:00,10.71,5.256,6.3092,83.30
2010-10-21 09:00,10.64,5.137,6.3262,81.20
2010-10-21 10:00,10.70,5.235,6.3154,82.90
2010-10-21 11:00,10.52,5.052,6.3385,79.70
2010-10-21 12:00,10.74,5.235,6.3078,83.00
2010-10-21 13:00,11.31,5.495,6.2304,88.20
2010-10-21 14:00,10.53,5.038,6.3376,79.50
2010-10-21 15:00,10.47,5.135,6.3469,80.90
2010-10-21 16:00,10.77,5.218,6.3014,82.80
2010-10-21 17:00,10.29,5.059,6.3710,79.40
2010-10-21 18:00,11.43,5.448,6.2123,87.70
2010-10-21 19:00,11.55,5.529,6.1982,89.20
2010-10-21 20:00,11.70,5.833,6.1794,94.40
2010-10-21 21:00,11.49,5.677,6.2039,91.50
2010-10-21 22:00,10.07,5.025,6.4012,78.50
2010-10-21 23:00,10.08,5.083,6.4020,79.40
2010-10-22 00:00,10.11,5.128,6.3940,80.20
2010-10-22 01:00,10.18,5.097,6.3867,79.80
2010-10-22 02:00,10.39,5.123,6.3567,80.60
2010-10-22 03:00,9.38,4.888,6.5005,75.20
2010-10-22 04:00,9.39,4.960,6.5007,76.30
2010-10-22 05:00,9.22,4.832,6.5214,74.10
2010-10-22 06:00,9.70,4.909,6.4501,76.10
2010-10-22 07:00,9.66,5.070,6.4583,78.50
2010-10-22 08:00,10.37,5.253,6.3600,82.60
2010-10-22 09:00,10.10,5.153,6.3928,80.60
2010-10-22 10:00,10.15,5.106,6.3899,79.90
2010-10-22 11:00,9.91,5.065,6.4280,78.80
2010-10-22 12:00,10.48,5.182,6.3423,81.70
2010-10-22 13:00,10.37,5.081,6.3591,79.90
2010-10-22 14:00,9.58,4.906,6.4726,75.80
2010-10-22 15:00,10.17,5.135,6.3864,80.40
2010-10-22 16:00,9.54,4.978,6.4817,76.80
2010-10-22 17:00,10.26,5.128,6.3781,80.40
2010-10-22 18:00,9.70,4.967,6.4503,77.00
2010-10-22 19:00,9.61,4.982,6.4623,77.10
2010-10-22 20:00,9.19,4.864,6.5285,74.50
2010-10-22 21:00,9.65,5.041,6.4623,78.00
2010-10-22 22:00,9.68,5.005,6.4578,77.50
2010-10-22 23:00,9.97,5.054,6.4138,78.80
2010-10-23 00:00,10.50,5.269,6.3406,83.10
2010-10-23 01:00,10.32,5.191,6.3689,81.50
2010-10-23 02:00,11.17,5.477,6.2526,87.60
2010-10-23 03:00,11.31,5.612,6.2282,90.10
2010-10-23 04:00,10.97,5.229,6.2770,83.30
2010-10-23 05:00,9.90,5.065,6.4280,78.80
2010-10-23 06:00,9.89,5.103,6.4274,79.40
2010-10-23 07:00,10.20,5.202,6.3826,81.50
2010-10-23 08:00,10.31,5.235,6.3691,82.20
2010-10-23 09:00,10.30,5.224,6.3710,82.00
2010-10-23 10:00,9.69,4.976,6.4535,77.10
2010-10-23 11:00,9.76,4.998,6.4408,77.60
2010-10-23 12:00,9.41,4.817,6.5003,74.10
2010-10-23 13:00,9.96,5.047,6.4134,78.70
2010-10-23 14:00,10.33,5.271,6.3663,82.80
2010-10-23 15:00,10.38,5.211,6.3624,81.90
2010-10-23 16:00,10.36,5.298,6.3603,83.30
2010-10-23 17:00,10.18,5.153,6.3849,80.70
2010-10-23 18:00,9.55,4.935,6.4769,76.20
2010-10-23 19:00,10.09,5.094,6.4000,79.60
2010-10-23 20:00,9.88,5.070,6.4255,78.90
2010-10-23 21:00,9.53,4.911,6.4786,75.80
2010-10-23 22:00,9.68,4.964,6.4558,76.90
2010-10-23 23:00,9.94,5.034,6.4208,78.40
2010-10-24 00:00,9.90,5.023,6.4229,78.20
2010-10-24 01:00,10.15,5.126,6.3912,80.20
2010-10-24 02:00,10.32,5.150,6.3663,80.90
2010-10-24 03:00,11.21,5.515,6.2461,88.30
2010-10-24 04:00,11.50,5.677,6.2039,91.50
2010-10-24 05:00,10.35,5.287,6.3621,83.10
2010-10-24 06:00,10.32,5.146,6.3686,80.80
2010-10-24 07:00,9.95,5.059,6.4195,78.80
2010-10-24 08:00,10.18,5.101,6.3843,79.90
2010-10-24 09:00,9.94,5.052,6.4191,78.70
2010-10-24 10:00,9.96,5.029,6.4151,78.40
2010-10-24 11:00,10.09,5.034,6.3963,78.70
2010-10-24 12:00,10.62,5.294,6.3246,83.70
2010-10-24 13:00,10.26,5.106,6.3740,80.10
2010-10-24 14:00,10.22,5.146,6.3765,80.70
2010-10-24 15:00,10.61,5.175,6.3264,81.80
2010-10-24 16:00,10.43,5.128,6.3543,80.70
2010-10-24 17:00,10.34,5.159,6.3617,81.10
2010-10-24 18:00,10.79,5.327,6.3044,84.50
2010-10-24 19:00,9.70,4.814,6.4537,74.60
2010-10-24 20:00,9.50,4.732,6.4816,73.00
2010-10-24 21:00,10.46,5.175,6.3497,81.50
2010-10-24 22:00,9.87,4.870,6.4254,75.80
2010-10-24 23:00,10.45,5.076,6.3535,79.90
2010-10-25 00:00,10.20,5.162,6.3880,80.80
2010-10-25 01:00,10.12,5.148,6.3952,80.50
2010-10-25 02:00,10.21,5.191,6.3846,81.30
2010-10-25 03:00,10.07,5.076,6.4016,79.30
2010-10-25 04:00,9.70,4.848,6.4554,75.10
2010-10-25 05:00,9.72,4.783,6.4462,74.20
2010-10-25 06:00,10.38,5.081,6.3591,79.90
2010-10-25 07:00,10.02,4.788,6.4091,74.70
2010-10-25 08:00,9.83,4.810,6.4391,74.70
2010-10-25 09:00,9.87,4.803,6.4301,74.70
2010-10-25 10:00,10.32,5.101,6.3684,80.10
2010-10-25 11:00,10.05,4.987,6.4016,77.90
2010-10-25 12:00,10.31,5.106,6.3660,80.20
2010-10-25 13:00,10.33,5.144,6.3659,80.80
2010-10-25 14:00,10.12,5.052,6.3947,79.00
2010-10-25 15:00,10.91,5.580,6.2841,88.80
2010-10-25 16:00,9.60,4.846,6.4697,74.90
2010-10-25 17:00,9.54,4.839,6.4780,74.70
2010-10-25 18:00,10.18,5.081,6.3831,79.60
2010-10-25 19:00,10.80,5.538,6.3000,87.90
2010-10-25 20:00,10.77,5.379,6.3057,85.30
2010-10-25 21:00,10.00,4.870,6.4085,76.00
2010-10-25 22:00,10.45,5.209,6.3442,82.10
2010-10-25 23:00,10.00,4.917,6.4113,76.70
2010-10-26 00:00,10.08,4.938,6.3959,77.20
2010-10-26 01:00,10.19,4.929,6.3843,77.20
2010-10-26 02:00,10.20,4.944,6.3798,77.50
2010-10-26 03:00,10.15,5.007,6.3947,78.30
2010-10-26 04:00,9.74,4.859,6.4446,75.40
2010-10-26 05:00,10.44,5.103,6.3474,80.40
2010-10-26 06:00,10.66,5.352,6.3186,84.70
2010-10-26 07:00,11.45,6.131,6.2119,98.70
2010-10-26 08:00,11.04,5.670,6.2720,90.40
2010-10-26 09:00,10.96,5.533,6.2807,88.10
2010-10-26 10:00,10.63,5.224,6.3247,82.60
2010-10-26 11:00,10.57,5.294,6.3321,83.60
2010-10-26 12:00,10.33,5.392,6.3662,84.70
2010-10-26 13:00,10.47,5.329,6.3446,84.00
2010-10-26 14:00,10.63,5.435,6.3268,85.90
2010-10-26 15:00,11.06,5.782,6.2642,92.30
2010-10-26 16:00,11.45,6.057,6.2126,97.50
2010-10-26 17:00,11.47,6.059,6.2085,97.60
2010-10-26 18:00,11.03,5.719,6.2710,91.20
2010-10-26 19:00,11.19,5.757,6.2442,92.20
2010-10-26 20:00,11.09,5.784,6.2598,92.40
2010-10-26 21:00,11.20,5.793,6.2425,92.80
2010-10-26 22:00,11.02,5.726,6.2715,91.30
2010-10-26 23:00,11.28,6.064,6.2387,97.20
2010-10-27 00:00,11.23,5.905,6.2421,94.60
2010-10-27 01:00,11.08,5.802,6.2589,92.70
2010-10-27 02:00,10.96,5.759,6.2739,91.80
2010-10-27 03:00,10.74,5.556,6.3061,88.10
2010-10-27 04:00,10.90,5.511,6.2838,87.70
2010-10-27 05:00,11.12,5.777,6.2593,92.30
2010-10-27 06:00,10.18,5.231,6.3870,81.90
2010-10-27 07:00,9.99,5.130,6.4127,80.00
2010-10-27 08:00,10.04,5.137,6.4051,80.20
2010-10-27 09:00,10.02,5.197,6.4086,81.10
2010-10-27 10:00,9.80,5.092,6.4376,79.10
2010-10-27 11:00,9.88,5.146,6.4243,80.10
2010-10-27 12:00,9.87,5.141,6.4267,80.00
2010-10-27 13:00,9.87,5.164,6.4306,80.30
2010-10-27 14:00,9.93,5.148,6.4191,80.20
2010-10-27 15:00,9.69,5.094,6.4567,78.90
2010-10-27 16:00,9.48,4.929,6.4851,76.00
2010-10-27 17:00,10.27,5.374,6.3752,84.30
2010-10-27 18:00,9.96,5.184,6.4158,80.80
2010-10-27 19:00,9.53,5.045,6.4764,77.90
2010-10-27 20:00,9.13,4.848,6.5338,74.20
2010-10-27 21:00,8.99,4.788,6.5583,73.00
2010-10-27 22:00,8.82,4.734,6.5839,71.90
2010-10-27 23:00,8.77,4.736,6.5870,71.90
2010-10-28 00:00,8.85,4.767,6.5758,72.50
2010-10-28 01:00,9.00,4.844,6.5542,73.90
2010-10-28 02:00,9.06,4.900,6.5414,74.90
2010-10-28 03:00,9.25,4.947,6.5172,75.90
2010-10-28 04:00,8.72,4.736,6.5962,71.80
2010-10-28 05:00,8.82,4.727,6.5837,71.80
2010-10-28 06:00,8.85,4.783,6.5792,72.70
2010-10-28 07:00,9.11,4.855,6.5428,74.20
2010-10-28 08:00,9.10,4.866,6.5403,74.40
2010-10-28 09:00,8.96,4.828,6.5596,73.60
2010-10-28 10:00,8.63,4.696,6.6045,71.10
2010-10-28 11:00,8.69,4.729,6.5960,71.70
2010-10-28 12:00,8.75,4.752,6.5905,72.10
2010-10-28 13:00,8.82,4.790,6.5794,72.80
2010-10-28 14:00,8.75,4.741,6.5933,71.90
2010-10-28 15:00,8.67,4.702,6.6046,71.20
2010-10-28 16:00,9.27,4.897,6.5124,75.20
2010-10-28 17:00,9.20,4.866,6.5227,74.60
2010-10-28 18:00,9.00,4.826,6.5566,73.60
2010-10-28 19:00,9.00,4.830,6.5538,73.70
2010-10-28 20:00,8.89,4.776,6.5700,72.70
2010-10-28 21:00,8.74,4.720,6.5927,71.60
2010-10-28 22:00,9.02,4.814,6.5503,73.50
2010-10-28 23:00,9.08,4.805,6.5470,73.40
2010-10-29 00:00,8.95,4.758,6.5634,72.50
2010-10-29 01:00,8.92,4.752,6.5632,72.40
2010-10-29 02:00,8.85,4.727,6.5746,71.90
2010-10-29 03:00,8.93,4.734,6.5657,72.10
2010-10-29 04:00,8.98,4.785,6.5553,73.00
2010-10-29 05:00,9.09,4.835,6.5421,73.90
2010-10-29 06:00,9.06,4.835,6.5510,73.80
2010-10-29 07:00,9.23,4.873,6.5230,74.70
2010-10-29 08:00,9.14,4.819,6.5386,73.70
2010-10-29 09:00,9.23,4.906,6.5243,75.20
2010-10-29 10:00,9.34,4.929,6.5022,75.80
2010-10-29 11:00,9.20,4.879,6.5233,74.80
2010-10-29 12:00,9.11,4.828,6.5419,73.80
2010-10-29 13:00,9.24,4.902,6.5183,75.20
2010-10-29 14:00,9.09,4.841,6.5423,74.00
2010-10-29 15:00,9.45,5.014,6.4861,77.30
2010-10-29 16:00,9.11,4.792,6.5376,73.30
2010-10-29 17:00,9.06,4.812,6.5472,73.50
2010-10-29 18:00,9.16,4.848,6.5338,74.20
2010-10-29 19:00,9.36,4.987,6.5018,76.70
2010-10-29 20:00,9.53,5.023,6.4809,77.50
2010-10-29 21:00,9.27,4.949,6.5202,75.90
2010-10-29 22:00,9.43,5.018,6.4919,77.30
2010-10-29 23:00,9.62,5.108,6.4656,79.00
2010-10-30 00:00,9.53,5.054,6.4796,78.00
2010-10-30 01:00,9.41,4.857,6.4933,74.80
2010-10-30 02:00,9.12,4.826,6.5388,73.80
2010-10-30 03:00,9.11,4.830,6.5360,73.90
2010-10-30 04:00,9.01,4.814,6.5592,73.40
2010-10-30 05:00,9.19,4.884,6.5292,74.80
2010-10-30 06:00,9.17,4.891,6.5295,74.90
2010-10-30 07:00,9.27,4.875,6.5173,74.80
2010-10-30 08:00,9.17,4.832,6.5302,74.00
2010-10-30 09:00,9.28,4.917,6.5132,75.50
2010-10-30 10:00,9.26,4.909,6.5186,75.30
2010-10-30 11:00,9.35,4.924,6.5049,75.70
2010-10-30 12:00,9.25,4.848,6.5162,74.40
2010-10-30 13:00,9.25,4.902,6.5183,75.20
2010-10-30 14:00,9.20,4.893,6.5238,75.00
2010-10-30 15:00,9.12,4.853,6.5398,74.20
2010-10-30 16:00,9.09,4.844,6.5454,74.00
2010-10-30 17:00,9.30,4.947,6.5086,76.00
2010-10-30 18:00,9.26,4.933,6.5167,75.70
2010-10-30 19:00,9.10,4.855,6.5428,74.20
2010-10-30 20:00,9.17,4.897,6.5297,75.00
2010-10-30 21:00,9.25,4.931,6.5137,75.70
2010-10-30 22:00,9.17,4.805,6.5292,73.60
2010-10-30 23:00,9.08,4.801,6.5409,73.40
2010-10-31 00:00,9.02,4.785,6.5553,73.00
2010-10-31 01:00,9.01,4.761,6.5484,72.70
2010-10-31 02:00,9.05,4.709,6.5497,71.90
2010-10-31 03:00,9.01,4.696,6.5492,71.70
2010-10-31 04:00,9.01,4.678,6.5516,71.40
2010-10-31 05:00,9.08,4.687,6.5458,71.60
2010-10-31 06:00,9.09,4.676,6.5393,71.50
2010-10-31 07:00,9.04,4.680,6.5548,71.40
2010-10-31 08:00,9.04,4.752,6.5451,72.60
2010-10-31 09:00,9.05,4.788,6.5494,73.10
2010-10-31 10:00,9.04,4.788,6.5494,73.10
2010-10-31 11:00,9.17,4.882,6.5262,74.80
2010-10-31 12:00,9.06,4.763,6.5425,72.80
2010-10-31 13:00,9.11,4.810,6.5353,73.60
2010-10-31 14:00,9.05,4.765,6.5456,72.80
2010-10-31 15:00,9.08,4.785,6.5463,73.10
2010-10-31 16:00,9.09,4.781,6.5402,73.10
2010-10-31 17:00,9.00,4.709,6.5497,71.90
2010-10-31 18:00,9.21,4.758,6.5274,72.90
2010-10-31 19:00,9.34,4.886,6.5061,75.10
2010-10-31 20:00,9.32,4.828,6.5066,74.20
2010-10-31 21:00,9.04,4.700,6.5463,71.80
2010-10-31 22:00,9.09,4.761,6.5394,72.80
2010-10-31 23:00,9.13,4.779,6.5371,73.10
2010-11-01 00:00,9.08,4.741,6.5387,72.50
2010-11-01 01:00,9.04,4.678,6.5516,71.40
2010-11-01 02:00,9.02,4.678,6.5516,71.40
2010-11-01 03:00,9.45,4.884,6.4859,75.30
2010-11-01 04:00,9.33,4.741,6.5028,72.90
2010-11-01 05:00,9.37,4.801,6.5054,73.80
2010-11-01 06:00,9.58,4.973,6.4674,76.90
2010-11-01 07:00,9.48,4.821,6.4888,74.30
2010-11-01 08:00,9.20,4.678,6.5242,71.70
2010-11-01 09:00,9.08,4.673,6.5453,71.40
2010-11-01 10:00,9.15,4.673,6.5362,71.50
2010-11-01 11:00,9.14,4.680,6.5364,71.60
2010-11-01 12:00,9.15,4.698,6.5341,71.90
2010-11-01 13:00,9.22,4.694,6.5188,72.00
2010-11-01 14:00,9.22,4.673,6.5271,71.60
2010-11-01 15:00,9.39,4.788,6.4960,73.70
2010-11-01 16:00,9.22,4.678,6.5242,71.70
2010-11-01 17:00,9.32,4.676,6.5120,71.80
2010-11-01 18:00,9.30,4.664,6.5055,71.70
2010-11-01 19:00,9.43,4.756,6.4887,73.30
2010-11-01 20:00,9.41,4.754,6.4945,73.20
2010-11-01 21:00,9.29,4.700,6.5100,72.20
2010-11-01 22:00,9.27,4.711,6.5165,72.30
2010-11-01 23:00,9.60,4.953,6.4664,76.60
2010-11-02 00:00,9.42,4.808,6.4882,74.10
2010-11-02 01:00,9.40,4.808,6.4969,74.00
2010-11-02 02:00,9.31,4.772,6.5101,73.30
2010-11-02 03:00,9.31,4.767,6.5129,73.20
2010-11-02 04:00,9.28,4.783,6.5165,73.40
2010-11-02 05:00,9.15,4.669,6.5299,71.50
2010-11-02 06:00,9.14,4.698,6.5341,71.90
2010-11-02 07:00,9.07,4.669,6.5482,71.30
2010-11-02 08:00,9.06,4.669,6.5482,71.30
2010-11-02 09:00,9.37,4.725,6.4991,72.70
2010-11-02 10:00,9.34,4.738,6.5087,72.80
2010-11-02 11:00,9.40,4.803,6.4997,73.90
2010-11-02 12:00,9.48,4.817,6.4828,74.30
2010-11-02 13:00,9.53,4.846,6.4783,74.80
2010-11-02 14:00,9.18,4.682,6.5305,71.70
2010-11-02 15:00,9.13,4.696,6.5401,71.80
2010-11-02 16:00,9.10,4.676,6.5393,71.50
2010-11-02 17:00,9.08,4.662,6.5388,71.30
2010-11-02 18:00,9.07,4.662,6.5388,71.30
2010-11-02 19:00,9.05,4.626,6.5436,70.70
2010-11-02 20:00,9.03,4.624,6.5497,70.60
2010-11-02 21:00,9.13,4.700,6.5372,71.90
2010-11-02 22:00,9.25,4.763,6.5157,73.10
2010-11-02 23:00,9.41,4.817,6.4915,74.20
2010-11-03 00:00,9.17,4.676,6.5302,71.60
2010-11-03 01:00,9.03,4.631,6.5500,70.70
2010-11-03 02:00,9.21,4.669,6.5208,71.60
2010-11-03 03:00,9.28,4.761,6.5126,73.10
2010-11-03 04:00,9.56,4.877,6.4770,75.30
2010-11-03 05:00,9.19,4.716,6.5227,72.30
2010-11-03 06:00,9.13,4.694,6.5370,71.80
2010-11-03 07:00,9.13,4.671,6.5331,71.50
2010-11-03 08:00,9.21,4.667,6.5268,71.50
2010-11-03 09:00,9.38,4.794,6.4963,73.80
2010-11-03 10:00,9.46,4.861,6.4906,74.90
2010-11-03 11:00,9.32,4.743,6.5059,72.90
2010-11-03 12:00,9.35,4.756,6.5065,73.10
2010-11-03 13:00,9.41,4.799,6.4936,73.90
2010-11-03 14:00,9.37,4.752,6.5003,73.10
2010-11-03 15:00,9.34,4.750,6.5062,73.00
2010-11-03 16:00,9.29,4.709,6.5134,72.30
2010-11-03 17:00,9.36,4.754,6.5034,73.10
2010-11-03 18:00,9.21,4.664,6.5237,71.50
2010-11-03 19:00,9.21,4.678,6.5242,71.70
2010-11-03 20:00,9.33,4.732,6.5084,72.70
2010-11-03 21:00,9.43,4.792,6.4933,73.80
2010-11-03 22:00,9.54,4.832,6.4777,74.60
2010-11-03 23:00,9.60,4.859,6.4704,75.10
2010-11-04 00:00,9.49,4.817,6.4828,74.30
2010-11-04 01:00,9.43,4.801,6.4879,74.00
2010-11-04 02:00,9.33,4.718,6.5078,72.50
2010-11-04 03:00,9.29,4.743,6.5148,72.80
2010-11-04 04:00,9.30,4.741,6.5118,72.80
2010-11-04 05:00,9.37,4.772,6.5012,73.40
2010-11-04 06:00,9.27,4.711,6.5165,72.30
2010-11-04 07:00,9.33,4.723,6.5050,72.60
2010-11-04 08:00,9.39,4.844,6.5014,74.50
2010-11-04 09:00,9.59,4.953,6.4664,76.60
2010-11-04 10:00,9.66,4.964,6.4642,76.80
2010-11-04 11:00,9.73,4.953,6.4496,76.80
2010-11-04 12:00,9.67,4.920,6.4563,76.20
2010-11-04 13:00,9.40,4.763,6.4979,73.30
2010-11-04 14:00,9.89,5.126,6.4232,79.80
2010-11-04 15:00,9.42,4.814,6.4885,74.20
2010-11-04 16:00,9.55,4.917,6.4789,75.90
2010-11-04 17:00,9.41,4.828,6.4978,74.30
2010-11-04 18:00,9.27,4.747,6.5120,72.90
2010-11-04 19:00,9.31,4.790,6.5079,73.60
2010-11-04 20:00,9.34,4.750,6.5062,73.00
2010-11-04 21:00,9.38,4.788,6.4960,73.70
2010-11-04 22:00,9.59,4.868,6.4651,75.30
2010-11-04 23:00,9.45,4.781,6.4869,73.70
2010-11-05 00:00,9.33,4.729,6.5053,72.70
2010-11-05 01:00,9.44,4.781,6.4957,73.60
2010-11-05 02:00,9.50,4.857,6.4846,74.90
2010-11-05 03:00,9.37,4.832,6.5039,74.30
2010-11-05 04:00,9.30,4.812,6.5118,73.90
2010-11-05 05:00,9.25,4.788,6.5226,73.40
2010-11-05 06:00,9.25,4.799,6.5201,73.60
2010-11-05 07:00,9.22,4.756,6.5243,72.90
2010-11-05 08:00,9.47,4.913,6.4901,75.70
2010-11-05 09:00,9.44,4.873,6.4882,75.10
2010-11-05 10:00,9.60,5.036,6.4649,77.90
2010-11-05 11:00,9.31,4.783,6.5076,73.50
2010-11-05 12:00,9.52,4.895,6.4750,75.60
2010-11-05 13:00,9.53,4.837,6.4750,74.70
2010-11-05 14:00,9.44,4.917,6.4874,75.80
2010-11-05 15:00,9.50,4.960,6.4837,76.50
2010-11-05 16:00,9.29,4.781,6.5134,73.40
2010-11-05 17:00,9.31,4.846,6.5132,74.40
2010-11-05 18:00,9.32,4.935,6.5110,75.80
2010-11-05 19:00,9.34,4.909,6.5100,75.40
2010-11-05 20:00,9.26,4.848,6.5162,74.40
2010-11-05 21:00,9.41,4.980,6.4930,76.70
2010-11-05 22:00,9.67,5.106,6.4546,79.10
2010-11-05 23:00,9.26,4.799,6.5112,73.70
2010-11-06 00:00,9.53,4.973,6.4758,76.80
2010-11-06 01:00,9.47,4.980,6.4846,76.80
2010-11-06 02:00,9.58,4.989,6.4710,77.10
2010-11-06 03:00,9.22,4.772,6.5190,73.20
2010-11-06 04:00,9.94,5.377,6.4159,83.80
2010-11-06 05:00,9.50,4.991,6.4823,77.00
2010-11-06 06:00,9.38,4.911,6.4957,75.60
2010-11-06 07:00,9.32,4.902,6.5097,75.30
2010-11-06 08:00,9.52,4.848,6.4813,74.80
2010-11-06 09:00,9.30,4.875,6.5086,74.90